Location: Barrio Pajares
(40.5500°N, 4.1667°W)
Time: 04:29:13
(UTC+00:00)

Cosmos 1727 Rocket - Visible Passes

Search period start: 25 July 2024 00:00
Search period end: 04 August 2024 00:00
Orbit: 961 x 995 km, 82.9° (Epoch: 24 July)

Date Brightness Start Highest point End Pass type
(mag) Time Alt. Az. Time Alt. Az. Time Alt. Az.
25 Jul 4.5 21:07:34 10° N 21:13:32 42° ENE 21:16:50 24° SE visible
25 Jul 5.5 22:53:28 10° NNW 22:58:41 28° W 23:01:35 20° SW visible
26 Jul 3.9 21:33:36 10° N 21:39:55 78° E 21:43:10 31° SSE visible
26 Jul 6.3 23:21:13 10° NW 23:24:30 15° W 23:27:46 10° WSW visible
27 Jul 5.4 20:15:36 10° NNE 20:20:15 21° ENE 20:24:45 10° ESE visible
27 Jul 4.4 21:59:58 10° NNW 22:06:08 58° W 22:09:30 27° SSW visible
28 Jul 4.6 20:41:04 10° N 20:46:53 38° ENE 20:51:07 17° SE visible
28 Jul 5.4 22:26:45 10° NNW 22:32:09 31° W 22:35:51 17° SW visible
29 Jul 4.0 21:07:02 10° N 21:13:19 70° E 21:17:30 22° SSE visible
29 Jul 6.2 22:54:15 10° NW 22:58:00 17° W 23:01:44 10° WSW visible
30 Jul 4.3 21:33:21 10° NNW 21:39:33 65° W 21:43:55 20° S visible
31 Jul 4.8 20:14:35 10° N 20:20:14 34° ENE 20:25:37 11° SE visible
31 Jul 5.3 22:00:02 10° NNW 22:05:36 35° W 22:10:21 14° SSW visible
01 Aug 4.1 20:40:29 10° N 20:46:42 63° E 20:52:04 14° SSE visible
01 Aug 6.2 22:27:21 10° NW 22:31:29 19° W 22:35:36 10° SW visible
02 Aug 4.2 21:06:44 10° NNW 21:12:58 73° W 21:18:35 13° S visible
03 Aug 4.9 19:48:06 10° NNE 19:53:35 31° ENE 19:58:58 10° SE visible
03 Aug 5.2 21:33:20 10° NNW 21:39:03 39° W 21:44:43 10° SSW visible
